"read_dt","SO2 (ppb)","flags","PMT voltage (V)","lamp voltage (V)","lamp intensity (Hz)","internal temp (C)","react chamber temp (C)","sample flow (l/min)","pres (mmHg)","SO2 bkg (ppb)","SO2 coefficient"
2014-02-12 00:00:00,4837E-2,5C000490,-0724,1375,6465,024.0,045.2,0.000,779.9,01.14,0.508
2014-02-12 00:01:00,4761E-2,5C000490,-0724,1375,6467,023.9,045.2,0.000,779.9,01.14,0.508
2014-02-12 00:02:00,4773E-2,5C000490,-0724,1375,6485,023.9,045.2,0.000,779.9,01.14,0.508
2014-02-12 00:03:00,4828E-2,5C000490,-0724,1375,6517,023.9,045.2,0.000,779.9,01.14,0.508
2014-02-12 00:04:00,4887E-2,5C000490,-0724,1375,6433,023.9,045.2,0.000,779.9,01.14,0.508
2014-02-12 00:05:00,4876E-2,5C000490,-0724,1375,6496,024.0,045.2,0.000,779.9,01.14,0.508
2014-02-12 00:06:00,4870E-2,5C000490,-0724,1375,6561,024.0,045.2,0.000,779.9,01.14,0.508
2014-02-12 00:07:00,4808E-2,5C000490,-0724,1375,6563,024.0,045.2,0.000,779.9,01.14,0.508
2014-02-12 00:08:00,4874E-2,5C000490,-0724,1374,6600,024.0,045.2,0.000,779.9,01.14,0.508
2014-02-12 00:09:00,4893E-2,5C000490,-0724,1374,6646,023.9,045.2,0.000,779.9,01.14,0.508
2014-02-12 00:10:00,4916E-2,5C000490,-0724,1374,6557,024.0,045.1,0.000,779.9,01.14,0.508
2014-02-12 00:11:00,4886E-2,5C000490,-0724,1374,6605,024.0,045.1,0.000,779.9,01.14,0.508
2014-02-12 00:12:00,4826E-2,5C000490,-0724,1375,6463,024.0,045.2,0.000,779.9,01.14,0.508
2014-02-12 00:13:00,4858E-2,5C000490,-0724,1375,6488,024.0,045.1,0.000,779.9,01.14,0.508
2014-02-12 00:14:00,4826E-2,5C000490,-0724,1375,6515,024.0,045.2,0.000,779.9,01.14,0.508
2014-02-12 00:15:00,4842E-2,5C000490,-0724,1375,6465,024.0,045.2,0.000,779.9,01.14,0.508
2014-02-12 00:16:00,5026E-2,5C000490,-0724,1375,6500,024.0,045.1,0.000,779.9,01.14,0.508
2014-02-12 00:17:00,4996E-2,5C000490,-0724,1375,6456,024.0,045.2,0.000,779.9,01.14,0.508
2014-02-12 00:18:00,5000E-2,5C000490,-0724,1375,6528,024.0,045.2,0.000,779.9,01.14,0.508
2014-02-12 00:19:00,4972E-2,5C000490,-0724,1375,6378,024.0,045.2,0.000,779.8,01.14,0.508
2014-02-12 00:20:00,5085E-2,5C000490,-0724,1375,6490,024.1,045.2,0.000,779.8,01.14,0.508
2014-02-12 00:21:00,5050E-2,5C000490,-0724,1375,6442,024.1,045.2,0.000,779.8,01.14,0.508
2014-02-12 00:22:00,5078E-2,5C000490,-0724,1375,6558,024.0,045.2,0.000,779.8,01.14,0.508
2014-02-12 00:23:00,5066E-2,5C000490,-0724,1374,6633,024.0,045.2,0.000,779.8,01.14,0.508
2014-02-12 00:24:00,5014E-2,5C000490,-0724,1374,6672,024.1,045.1,0.000,779.8,01.14,0.508
2014-02-12 00:25:00,5043E-2,5C000490,-0724,1374,6591,024.1,045.2,0.000,779.8,01.14,0.508
2014-02-12 00:26:00,5082E-2,5C000490,-0724,1374,6615,024.1,045.2,0.000,779.8,01.14,0.508
2014-02-12 00:27:00,5027E-2,5C000490,-0724,1374,6546,024.1,045.2,0.000,779.7,01.14,0.508
2014-02-12 00:28:00,5032E-2,5C000490,-0724,1374,6602,024.1,045.2,0.000,779.7,01.14,0.508
2014-02-12 00:29:00,5066E-2,5C000490,-0724,1374,6503,024.1,045.2,0.000,779.7,01.14,0.508
2014-02-12 00:30:00,5031E-2,5C000490,-0724,1374,6557,024.1,045.2,0.000,779.7,01.14,0.508
2014-02-12 00:31:00,5055E-2,5C000490,-0724,1374,6401,024.1,045.2,0.000,779.7,01.14,0.508
2014-02-12 00:32:00,5012E-2,5C000490,-0724,1375,6594,024.1,045.1,0.000,779.8,01.14,0.508
2014-02-12 00:33:00,5111E-2,5C000490,-0724,1375,6508,024.1,045.2,0.000,779.8,01.14,0.508
2014-02-12 00:34:00,5082E-2,5C000490,-0724,1375,6538,024.1,045.2,0.000,779.8,01.14,0.508
2014-02-12 00:35:00,5014E-2,5C000490,-0724,1375,6446,024.1,045.2,0.000,779.8,01.14,0.508
2014-02-12 00:36:00,5083E-2,5C000490,-0724,1375,6535,024.1,045.2,0.000,779.7,01.14,0.508
2014-02-12 00:37:00,5021E-2,5C000490,-0724,1375,6448,024.1,045.2,0.000,779.7,01.14,0.508
2014-02-12 00:38:00,5086E-2,5C000490,-0724,1375,6459,024.1,045.2,0.000,779.7,01.14,0.508
2014-02-12 00:39:00,5130E-2,5C000490,-0724,1375,6521,024.2,045.1,0.000,779.7,01.14,0.508
2014-02-12 00:40:00,5068E-2,5C000490,-0724,1375,6451,024.2,045.2,0.000,779.7,01.14,0.508
2014-02-12 00:41:00,5015E-2,5C000490,-0724,1375,6496,024.2,045.2,0.000,779.7,01.14,0.508
2014-02-12 00:42:00,5054E-2,5C000490,-0724,1375,6480,024.2,045.2,0.000,779.7,01.14,0.508
2014-02-12 00:43:00,5070E-2,5C000490,-0724,1375,6505,024.2,045.2,0.000,779.7,01.14,0.508
2014-02-12 00:44:00,5047E-2,5C000490,-0724,1375,6488,024.2,045.2,0.000,779.7,01.14,0.508
2014-02-12 00:45:00,5068E-2,5C000490,-0724,1375,6450,024.2,045.2,0.000,779.7,01.14,0.508
2014-02-12 00:46:00,5061E-2,5C000490,-0724,1375,6458,024.2,045.2,0.000,779.7,01.14,0.508
2014-02-12 00:47:00,5100E-2,5C000490,-0724,1375,6465,024.2,045.2,0.000,779.6,01.14,0.508
2014-02-12 00:48:00,5030E-2,5C000490,-0724,1375,6345,024.2,045.2,0.000,779.6,01.14,0.508
2014-02-12 00:49:00,5056E-2,5C000490,-0724,1375,6462,024.2,045.2,0.000,779.6,01.14,0.508
2014-02-12 00:50:00,5087E-2,5C000490,-0724,1375,6375,024.2,045.2,0.000,779.6,01.14,0.508
2014-02-12 00:51:00,5059E-2,5C000490,-0724,1375,6432,024.2,045.2,0.000,779.6,01.14,0.508
2014-02-12 00:52:00,5063E-2,5C000490,-0724,1375,6383,024.2,045.1,0.000,779.6,01.14,0.508
2014-02-12 00:53:00,5104E-2,5C000490,-0724,1375,6464,024.2,045.2,0.000,779.6,01.14,0.508
2014-02-12 00:54:00,5110E-2,5C000490,-0724,1375,6393,024.2,045.2,0.000,779.6,01.14,0.508
2014-02-12 00:55:00,5043E-2,5C000490,-0724,1375,6338,024.3,045.2,0.000,779.6,01.14,0.508
2014-02-12 00:56:00,5058E-2,5C000490,-0724,1375,6330,024.3,045.2,0.000,779.6,01.14,0.508
2014-02-12 00:57:00,5038E-2,5C000490,-0724,1375,6413,024.2,045.2,0.000,779.6,01.14,0.508
2014-02-12 00:58:00,4999E-2,5C000490,-0724,1375,6328,024.3,045.2,0.000,779.6,01.14,0.508
2014-02-12 00:59:00,5078E-2,5C000490,-0724,1375,6424,024.3,045.2,0.000,779.5,01.14,0.508
2014-02-12 01:00:00,5012E-2,5C000490,-0724,1375,6372,024.3,045.2,0.000,779.5,01.14,0.508
2014-02-12 01:01:00,5045E-2,5C000490,-0724,1375,6367,024.3,045.2,0.000,779.5,01.14,0.508
2014-02-12 01:02:00,5010E-2,5C000490,-0724,1375,6360,024.3,045.2,0.000,779.5,01.14,0.508
2014-02-12 01:03:00,5024E-2,5C000490,-0724,1375,6333,024.3,045.2,0.000,779.6,01.14,0.508
2014-02-12 01:04:00,5096E-2,5C000490,-0724,1375,6314,024.3,045.2,0.000,779.5,01.14,0.508
2014-02-12 01:05:00,5015E-2,5C000490,-0724,1375,6293,024.3,045.2,0.000,779.5,01.14,0.508
2014-02-12 01:06:00,5043E-2,5C000490,-0724,1375,6331,024.3,045.2,0.000,779.5,01.14,0.508
2014-02-12 01:07:00,5056E-2,5C000490,-0724,1375,6284,024.3,045.2,0.000,779.4,01.14,0.508
2014-02-12 01:08:00,4979E-2,5C000490,-0724,1375,6268,024.3,045.2,0.000,779.4,01.14,0.508
2014-02-12 01:09:00,5022E-2,5C000490,-0724,1375,6319,024.3,045.2,0.000,779.4,01.14,0.508
2014-02-12 01:10:00,4986E-2,5C000490,-0724,1375,6346,024.3,045.1,0.000,779.4,01.14,0.508
2014-02-12 01:11:00,5049E-2,5C000490,-0724,1375,6355,024.3,045.2,0.000,779.4,01.14,0.508
2014-02-12 01:12:00,4993E-2,5C000490,-0724,1375,6221,024.3,045.2,0.000,779.4,01.14,0.508
2014-02-12 01:13:00,4975E-2,5C000490,-0724,1375,6253,024.3,045.2,0.000,779.4,01.14,0.508
2014-02-12 01:14:00,5037E-2,5C000490,-0724,1375,6205,024.4,045.2,0.000,779.4,01.14,0.508
2014-02-12 01:15:00,4992E-2,5C000490,-0724,1375,6270,024.3,045.2,0.000,779.4,01.14,0.508
2014-02-12 01:16:00,4971E-2,5C000490,-0724,1375,6202,024.3,045.2,0.000,779.4,01.14,0.508
2014-02-12 01:17:00,5032E-2,5C000490,-0724,1375,6178,024.3,045.2,0.000,779.4,01.14,0.508
2014-02-12 01:18:00,5025E-2,5C000490,-0724,1375,6234,024.3,045.2,0.000,779.3,01.14,0.508
2014-02-12 01:19:00,5014E-2,5C000490,-0724,1375,6161,024.4,045.2,0.000,779.3,01.14,0.508
2014-02-12 01:20:00,5044E-2,5C000490,-0724,1375,6191,024.4,045.2,0.000,779.4,01.14,0.508
2014-02-12 01:21:00,4991E-2,5C000490,-0724,1375,6207,024.4,045.2,0.000,779.3,01.14,0.508
2014-02-12 01:22:00,5032E-2,5C000490,-0724,1375,6153,024.4,045.2,0.000,779.3,01.14,0.508
2014-02-12 01:23:00,4975E-2,5C000490,-0724,1375,6014,024.4,045.2,0.000,779.3,01.14,0.508
2014-02-12 01:24:00,4996E-2,5C000490,-0724,1375,6173,024.4,045.2,0.000,779.3,01.14,0.508
2014-02-12 01:25:00,5100E-2,5C000490,-0724,1375,6096,024.4,045.2,0.000,779.3,01.14,0.508
2014-02-12 01:26:00,5004E-2,5C000490,-0724,1375,6097,024.4,045.2,0.000,779.3,01.14,0.508
2014-02-12 01:27:00,4966E-2,5C000490,-0724,1375,6087,024.4,045.2,0.000,779.3,01.14,0.508
2014-02-12 01:28:00,5001E-2,5C000490,-0724,1375,6036,024.4,045.2,0.000,779.3,01.14,0.508
2014-02-12 01:29:00,5063E-2,5C000490,-0724,1375,6056,024.4,045.2,0.000,779.2,01.14,0.508
2014-02-12 01:30:00,4994E-2,5C000490,-0724,1375,6203,024.4,045.2,0.000,779.3,01.14,0.508
2014-02-12 01:31:00,5075E-2,5C000490,-0724,1375,6149,024.4,045.2,0.000,779.2,01.14,0.508
2014-02-12 01:32:00,5008E-2,5C000490,-0724,1375,6141,024.4,045.2,0.000,779.2,01.14,0.508
2014-02-12 01:33:00,5099E-2,5C000490,-0724,1375,6137,024.4,045.2,0.000,779.2,01.14,0.508
2014-02-12 01:34:00,5026E-2,5C000490,-0724,1375,6120,024.5,045.2,0.000,779.2,01.14,0.508
2014-02-12 01:35:00,5069E-2,5C000490,-0724,1375,6041,024.5,045.2,0.000,779.2,01.14,0.508
2014-02-12 01:36:00,5060E-2,5C000490,-0724,1375,6056,024.5,045.2,0.000,779.1,01.14,0.508
2014-02-12 01:37:00,5047E-2,5C000490,-0724,1375,6065,024.5,045.2,0.000,779.1,01.14,0.508
2014-02-12 01:38:00,5037E-2,5C000490,-0724,1375,6022,024.4,045.2,0.000,779.1,01.14,0.508
2014-02-12 01:39:00,5067E-2,5C000490,-0724,1375,6016,024.5,045.2,0.000,779.1,01.14,0.508
2014-02-12 01:40:00,4919E-2,5C000490,-0724,1375,6084,024.5,045.2,0.000,779.1,01.14,0.508
2014-02-12 01:41:00,5015E-2,5C000490,-0724,1375,6073,024.5,045.2,0.000,779.1,01.14,0.508
2014-02-12 01:42:00,5006E-2,5C000490,-0724,1375,6092,024.5,045.2,0.000,779.0,01.14,0.508
2014-02-12 01:43:00,5018E-2,5C000490,-0724,1375,6186,024.5,045.2,0.000,779.1,01.14,0.508
2014-02-12 01:44:00,5034E-2,5C000490,-0724,1375,6139,024.5,045.2,0.000,779.1,01.14,0.508
2014-02-12 01:45:00,5025E-2,5C000490,-0724,1375,6056,024.5,045.2,0.000,779.0,01.14,0.508
2014-02-12 01:46:00,4962E-2,5C000490,-0724,1375,6116,024.5,045.2,0.000,778.9,01.14,0.508
2014-02-12 01:47:00,4993E-2,5C000490,-0724,1375,6184,024.5,045.2,0.000,778.9,01.14,0.508
2014-02-12 01:48:00,5047E-2,5C000490,-0724,1375,6102,024.6,045.2,0.000,778.9,01.14,0.508
2014-02-12 01:49:00,5043E-2,5C000490,-0724,1375,6130,024.6,045.2,0.000,778.9,01.14,0.508
2014-02-12 01:50:00,5028E-2,5C000490,-0724,1375,6079,024.5,045.2,0.000,778.9,01.14,0.508
2014-02-12 01:51:00,5027E-2,5C000490,-0724,1375,6121,024.6,045.2,0.000,778.9,01.14,0.508
2014-02-12 01:52:00,5023E-2,5C000490,-0724,1375,6061,024.6,045.2,0.000,778.9,01.14,0.508
2014-02-12 01:53:00,5031E-2,5C000490,-0724,1375,6086,024.6,045.2,0.000,778.8,01.14,0.508
2014-02-12 01:54:00,4994E-2,5C000490,-0724,1375,6089,024.6,045.2,0.000,778.8,01.14,0.508
2014-02-12 01:55:00,4996E-2,5C000490,-0724,1375,6025,024.6,045.2,0.000,778.8,01.14,0.508
2014-02-12 01:56:00,4910E-2,5C000490,-0724,1375,6192,024.6,045.2,0.000,778.8,01.14,0.508
2014-02-12 01:57:00,4961E-2,5C000490,-0724,1375,6156,024.6,045.2,0.000,778.8,01.14,0.508
2014-02-12 01:58:00,4992E-2,5C000490,-0724,1375,6121,024.6,045.2,0.000,778.8,01.14,0.508
2014-02-12 01:59:00,4974E-2,5C000490,-0724,1375,6144,024.6,045.2,0.000,778.8,01.14,0.508
2014-02-12 02:00:00,4988E-2,5C000490,-0724,1375,6100,024.6,045.2,0.000,778.8,01.14,0.508
2014-02-12 02:01:00,4993E-2,5C000490,-0724,1375,6238,024.7,045.2,0.000,778.8,01.14,0.508
2014-02-12 02:02:00,4965E-2,5C000490,-0724,1375,6203,024.7,045.2,0.000,778.8,01.14,0.508
2014-02-12 02:03:00,5010E-2,5C000490,-0724,1375,6194,024.7,045.2,0.000,778.8,01.14,0.508
2014-02-12 02:04:00,4990E-2,5C000490,-0724,1375,6178,024.7,045.2,0.000,778.7,01.14,0.508
2014-02-12 02:05:00,5058E-2,5C000490,-0724,1375,6215,024.7,045.2,0.000,778.7,01.14,0.508
2014-02-12 02:06:00,4969E-2,5C000490,-0724,1375,6142,024.7,045.2,0.000,778.8,01.14,0.508
2014-02-12 02:07:00,4958E-2,5C000490,-0724,1375,6239,024.7,045.2,0.000,778.8,01.14,0.508
2014-02-12 02:08:00,5044E-2,5C000490,-0724,1375,6339,024.7,045.2,0.000,778.7,01.14,0.508
2014-02-12 02:09:00,5029E-2,5C000490,-0724,1375,6364,024.7,045.2,0.000,778.6,01.14,0.508
2014-02-12 02:10:00,5034E-2,5C000490,-0724,1375,6291,024.7,045.2,0.000,778.7,01.14,0.508
2014-02-12 02:11:00,5049E-2,5C000490,-0724,1375,6298,024.7,045.2,0.000,778.7,01.14,0.508
2014-02-12 02:12:00,5056E-2,5C000490,-0724,1375,6309,024.7,045.2,0.000,778.8,01.14,0.508
2014-02-12 02:13:00,5022E-2,5C000490,-0724,1375,6323,024.7,045.2,0.000,778.6,01.14,0.508
2014-02-12 02:14:00,5091E-2,5C000490,-0724,1375,6223,024.7,045.2,0.000,778.7,01.14,0.508
2014-02-12 02:15:00,5057E-2,5C000490,-0724,1375,6308,024.7,045.2,0.000,778.7,01.14,0.508
2014-02-12 02:16:00,5036E-2,5C000490,-0724,1375,6218,024.7,045.2,0.000,778.8,01.14,0.508
2014-02-12 02:17:00,5041E-2,5C000490,-0724,1375,6198,024.7,045.2,0.000,778.7,01.14,0.508
2014-02-12 02:18:00,5067E-2,5C000490,-0724,1375,6182,024.7,045.2,0.000,778.6,01.14,0.508
2014-02-12 02:19:00,5077E-2,5C000490,-0724,1375,6230,024.8,045.2,0.000,778.7,01.14,0.508
2014-02-12 02:20:00,5023E-2,5C000490,-0724,1375,6226,024.8,045.2,0.000,778.7,01.14,0.508
2014-02-12 02:21:00,5102E-2,5C000490,-0724,1375,6201,024.8,045.2,0.000,778.7,01.14,0.508
2014-02-12 02:22:00,4991E-2,5C000490,-0724,1375,6203,024.7,045.2,0.000,778.7,01.14,0.508
2014-02-12 02:23:00,5089E-2,5C000490,-0724,1375,6133,024.8,045.2,0.000,778.8,01.14,0.508
2014-02-12 02:24:00,5008E-2,5C000490,-0724,1375,6101,024.8,045.2,0.000,778.6,01.14,0.508
2014-02-12 02:25:00,5054E-2,5C000490,-0724,1375,5976,024.8,045.2,0.000,778.6,01.14,0.508
2014-02-12 02:26:00,4992E-2,5C000490,-0724,1375,6225,024.8,045.2,0.000,778.6,01.14,0.508
2014-02-12 02:27:00,5010E-2,5C000490,-0724,1375,6208,024.8,045.2,0.000,778.7,01.14,0.508
2014-02-12 02:28:00,5009E-2,5C000490,-0724,1375,6107,024.8,045.2,0.000,778.7,01.14,0.508
2014-02-12 02:29:00,5029E-2,5C000490,-0724,1375,6209,024.8,045.2,0.000,778.7,01.14,0.508
2014-02-12 02:30:00,5013E-2,5C000490,-0724,1375,6136,024.8,045.2,0.000,778.7,01.14,0.508
2014-02-12 02:31:00,5001E-2,5C000490,-0724,1375,6181,024.8,045.2,0.000,778.6,01.14,0.508
2014-02-12 02:32:00,5046E-2,5C000490,-0724,1375,6175,024.8,045.2,0.000,778.7,01.14,0.508
2014-02-12 02:33:00,5032E-2,5C000490,-0724,1375,6146,024.8,045.2,0.000,778.7,01.14,0.508
2014-02-12 02:34:00,5005E-2,5C000490,-0724,1375,6059,024.9,045.2,0.000,778.6,01.14,0.508
2014-02-12 02:35:00,5052E-2,5C000490,-0724,1375,6034,024.8,045.2,0.000,778.6,01.14,0.508
2014-02-12 02:36:00,5053E-2,5C000490,-0724,1375,6105,024.8,045.2,0.000,778.6,01.14,0.508
2014-02-12 02:37:00,5056E-2,5C000490,-0724,1375,5993,024.9,045.2,0.000,778.6,01.14,0.508
2014-02-12 02:38:00,5013E-2,5C000490,-0724,1375,6051,024.9,045.2,0.000,778.5,01.14,0.508
2014-02-12 02:39:00,5055E-2,5C000490,-0724,1375,6105,024.9,045.2,0.000,778.6,01.14,0.508
2014-02-12 02:40:00,5008E-2,5C000490,-0724,1375,6025,024.9,045.2,0.000,778.6,01.14,0.508
2014-02-12 02:41:00,5019E-2,5C000490,-0724,1375,6093,024.9,045.2,0.000,778.6,01.14,0.508
2014-02-12 02:42:00,5066E-2,5C000490,-0724,1375,6007,024.9,045.2,0.000,778.6,01.14,0.508
2014-02-12 02:43:00,5027E-2,5C000490,-0724,1375,6034,024.9,045.2,0.000,778.6,01.14,0.508
2014-02-12 02:44:00,5061E-2,5C000490,-0724,1375,6002,024.9,045.2,0.000,778.6,01.14,0.508
2014-02-12 02:45:00,5019E-2,5C000490,-0724,1375,5985,024.9,045.2,0.000,778.6,01.14,0.508
2014-02-12 02:46:00,5033E-2,5C000490,-0724,1375,6015,024.9,045.2,0.000,778.6,01.14,0.508
2014-02-12 02:47:00,5035E-2,5C000490,-0724,1375,6100,024.9,045.2,0.000,778.5,01.14,0.508
2014-02-12 02:48:00,5033E-2,5C000490,-0724,1375,6056,024.9,045.2,0.000,778.4,01.14,0.508
2014-02-12 02:49:00,5024E-2,5C000490,-0724,1375,6074,024.9,045.2,0.000,778.4,01.14,0.508
2014-02-12 02:50:00,4966E-2,5C000490,-0724,1375,6022,024.9,045.2,0.000,778.4,01.14,0.508
2014-02-12 02:51:00,5038E-2,5C000490,-0724,1375,6073,025.0,045.2,0.000,778.4,01.14,0.508
2014-02-12 02:52:00,4977E-2,5C000490,-0724,1375,6010,025.0,045.2,0.000,778.4,01.14,0.508
2014-02-12 02:53:00,5009E-2,5C000490,-0724,1375,5969,025.0,045.2,0.000,778.4,01.14,0.508
2014-02-12 02:54:00,4979E-2,5C000490,-0724,1375,5995,024.9,045.2,0.000,778.4,01.14,0.508
2014-02-12 02:55:00,4982E-2,5C000490,-0724,1375,6005,025.0,045.2,0.000,778.4,01.14,0.508
2014-02-12 02:56:00,4978E-2,5C000490,-0724,1375,5882,025.0,045.2,0.000,778.4,01.14,0.508
2014-02-12 02:57:00,5025E-2,5C000490,-0724,1375,5943,025.0,045.2,0.000,778.4,01.14,0.508
2014-02-12 02:58:00,4990E-2,5C000490,-0724,1375,5878,025.0,045.2,0.000,778.4,01.14,0.508
2014-02-12 02:59:00,4973E-2,5C000490,-0724,1375,5894,025.0,045.2,0.000,778.4,01.14,0.508
2014-02-12 03:00:00,5009E-2,5C000490,-0724,1375,6002,025.0,045.2,0.000,778.4,01.14,0.508
2014-02-12 03:01:00,4976E-2,5C000490,-0724,1375,5903,025.0,045.2,0.000,778.4,01.14,0.508
2014-02-12 03:02:00,4994E-2,5C000490,-0724,1375,5857,025.0,045.2,0.000,778.4,01.14,0.508
2014-02-12 03:03:00,4966E-2,5C000490,-0724,1375,5919,025.0,045.2,0.000,778.4,01.14,0.508
2014-02-12 03:04:00,5044E-2,5C000490,-0724,1375,6000,025.1,045.2,0.000,778.4,01.14,0.508
2014-02-12 03:05:00,4957E-2,5C000490,-0724,1375,5944,025.0,045.2,0.000,778.4,01.14,0.508
2014-02-12 03:06:00,4928E-2,5C000490,-0724,1375,5870,025.0,045.2,0.000,778.4,01.14,0.508
2014-02-12 03:07:00,5030E-2,5C000490,-0724,1375,5881,025.0,045.2,0.000,778.4,01.14,0.508
2014-02-12 03:08:00,5008E-2,5C000490,-0724,1375,5852,025.0,045.2,0.000,778.4,01.14,0.508
2014-02-12 03:09:00,4913E-2,5C000490,-0724,1375,5919,025.0,045.2,0.000,778.4,01.14,0.508
2014-02-12 03:10:00,4962E-2,5C000490,-0724,1375,5845,025.1,045.2,0.000,778.4,01.14,0.508
2014-02-12 03:11:00,5009E-2,5C000490,-0724,1375,5969,025.1,045.2,0.000,778.3,01.14,0.508
2014-02-12 03:12:00,5031E-2,5C000490,-0724,1375,5989,025.1,045.2,0.000,778.3,01.14,0.508
2014-02-12 03:13:00,4978E-2,5C000490,-0724,1375,5812,025.1,045.2,0.000,778.3,01.14,0.508
2014-02-12 03:14:00,4944E-2,5C000490,-0724,1375,5887,025.1,045.2,0.000,778.2,01.14,0.508
2014-02-12 03:15:00,4984E-2,5C000490,-0724,1375,5893,025.1,045.2,0.000,778.2,01.14,0.508
2014-02-12 03:16:00,4964E-2,5C000490,-0724,1375,5895,025.1,045.2,0.000,778.1,01.14,0.508
2014-02-12 03:17:00,4954E-2,5C000490,-0724,1375,5835,025.1,045.2,0.000,778.1,01.14,0.508
2014-02-12 03:18:00,5042E-2,5C000490,-0724,1375,5891,025.1,045.2,0.000,778.2,01.14,0.508
2014-02-12 03:19:00,4993E-2,5C000490,-0724,1375,5849,025.1,045.2,0.000,778.2,01.14,0.508
2014-02-12 03:20:00,4977E-2,5C000490,-0724,1375,5922,025.1,045.2,0.000,778.2,01.14,0.508
2014-02-12 03:21:00,4952E-2,5C000490,-0724,1375,5910,025.1,045.2,0.000,778.1,01.14,0.508
2014-02-12 03:22:00,4964E-2,5C000490,-0724,1375,5860,025.2,045.2,0.000,778.2,01.14,0.508
2014-02-12 03:23:00,4918E-2,5C000490,-0724,1375,5895,025.2,045.2,0.000,778.2,01.14,0.508
2014-02-12 03:24:00,4964E-2,5C000490,-0724,1375,5747,025.2,045.2,0.000,778.2,01.14,0.508
2014-02-12 03:25:00,5035E-2,5C000490,-0724,1375,5868,025.2,045.2,0.000,778.3,01.14,0.508
2014-02-12 03:26:00,4951E-2,5C000490,-0724,1375,5853,025.2,045.2,0.000,778.3,01.14,0.508
2014-02-12 03:27:00,5012E-2,5C000490,-0724,1375,5801,025.2,045.2,0.000,778.3,01.14,0.508
2014-02-12 03:28:00,4995E-2,5C000490,-0724,1375,5857,025.2,045.2,0.000,778.2,01.14,0.508
2014-02-12 03:29:00,5000E-2,5C000490,-0724,1375,5795,025.2,045.2,0.000,778.2,01.14,0.508
2014-02-12 03:30:00,4927E-2,5C000490,-0724,1375,5779,025.2,045.2,0.000,778.2,01.14,0.508
2014-02-12 03:31:00,4956E-2,5C000490,-0724,1375,5756,025.2,045.2,0.000,778.2,01.14,0.508
2014-02-12 03:32:00,4907E-2,5C000490,-0724,1375,5781,025.2,045.2,0.000,778.1,01.14,0.508
2014-02-12 03:33:00,4923E-2,5C000490,-0724,1375,5739,025.2,045.2,0.000,778.2,01.14,0.508
2014-02-12 03:34:00,4981E-2,5C000490,-0724,1375,5824,025.2,045.2,0.000,778.0,01.14,0.508
2014-02-12 03:35:00,4948E-2,5C000490,-0724,1375,5783,025.2,045.2,0.000,778.1,01.14,0.508
2014-02-12 03:36:00,5014E-2,5C000490,-0724,1375,5748,025.2,045.2,0.000,778.1,01.14,0.508
2014-02-12 03:37:00,4892E-2,5C000490,-0724,1375,5722,025.2,045.2,0.000,778.2,01.14,0.508
2014-02-12 03:38:00,4965E-2,5C000490,-0724,1375,5930,025.2,045.2,0.000,778.1,01.14,0.508
2014-02-12 03:39:00,4932E-2,5C000490,-0724,1375,5879,025.2,045.2,0.000,778.2,01.14,0.508
2014-02-12 03:40:00,4933E-2,5C000490,-0724,1375,5958,025.2,045.2,0.000,778.2,01.14,0.508
2014-02-12 03:41:00,4998E-2,5C000490,-0724,1375,5883,025.3,045.2,0.000,778.2,01.14,0.508
2014-02-12 03:42:00,5030E-2,5C000490,-0724,1375,5944,025.3,045.2,0.000,778.2,01.14,0.508
2014-02-12 03:43:00,4982E-2,5C000490,-0724,1375,5906,025.2,045.2,0.000,778.2,01.14,0.508
2014-02-12 03:44:00,4977E-2,5C000490,-0724,1375,5977,025.3,045.2,0.000,778.2,01.14,0.508
2014-02-12 03:45:00,4959E-2,5C000490,-0724,1375,5891,025.3,045.2,0.000,778.2,01.14,0.508
2014-02-12 03:46:00,4967E-2,5C000490,-0724,1375,5996,025.3,045.2,0.000,778.2,01.14,0.508
2014-02-12 03:47:00,4998E-2,5C000490,-0724,1375,5940,025.3,045.2,0.000,778.2,01.14,0.508
2014-02-12 03:48:00,5074E-2,5C000490,-0724,1375,5921,025.3,045.2,0.000,778.2,01.14,0.508
2014-02-12 03:49:00,4970E-2,5C000490,-0724,1375,5899,025.3,045.2,0.000,778.1,01.14,0.508
2014-02-12 03:50:00,4979E-2,5C000490,-0724,1375,5881,025.2,045.2,0.000,778.1,01.14,0.508
2014-02-12 03:51:00,4987E-2,5C000490,-0724,1375,5924,025.3,045.2,0.000,778.1,01.14,0.508
2014-02-12 03:52:00,4962E-2,5C000490,-0724,1375,5921,025.3,045.2,0.000,778.0,01.14,0.508
2014-02-12 03:53:00,4992E-2,5C000490,-0724,1375,5943,025.3,045.2,0.000,778.1,01.14,0.508
2014-02-12 03:54:00,4954E-2,5C000490,-0724,1375,5883,025.3,045.2,0.000,778.0,01.14,0.508
2014-02-12 03:55:00,5014E-2,5C000490,-0724,1375,5848,025.3,045.2,0.000,778.1,01.14,0.508
2014-02-12 03:56:00,4993E-2,5C000490,-0724,1375,5845,025.3,045.2,0.000,778.1,01.14,0.508
2014-02-12 03:57:00,4977E-2,5C000490,-0724,1375,5785,025.3,045.2,0.000,778.0,01.14,0.508
2014-02-12 03:58:00,4941E-2,5C000490,-0724,1375,5855,025.3,045.2,0.000,778.1,01.14,0.508
2014-02-12 03:59:00,5037E-2,5C000490,-0724,1375,5909,025.3,045.2,0.000,778.0,01.14,0.508
2014-02-12 04:00:00,4921E-2,5C000490,-0724,1375,5860,025.3,045.2,0.000,778.0,01.14,0.508
2014-02-12 04:01:00,4912E-2,5C000490,-0724,1375,5832,025.3,045.2,0.000,778.0,01.14,0.508
2014-02-12 04:02:00,4936E-2,5C000490,-0724,1375,5788,025.3,045.2,0.000,778.0,01.14,0.508
2014-02-12 04:03:00,4930E-2,5C000490,-0724,1375,5815,025.3,045.2,0.000,778.0,01.14,0.508
2014-02-12 04:04:00,4791E-2,5C000490,-0724,1375,5781,025.3,045.2,0.000,778.1,01.14,0.508
2014-02-12 04:05:00,4343E-2,5C000490,-0724,1375,5909,025.3,045.2,0.000,778.1,01.14,0.508
2014-02-12 04:06:00,4452E-2,5C000490,-0724,1375,5901,025.3,045.2,0.000,778.0,01.14,0.508
2014-02-12 04:07:00,4421E-2,5C000490,-0724,1375,5852,025.4,045.2,0.000,777.9,01.14,0.508
2014-02-12 04:08:00,4382E-2,5C000490,-0724,1375,5783,025.4,045.2,0.000,777.9,01.14,0.508
2014-02-12 04:09:00,4330E-2,5C000490,-0724,1375,5852,025.3,045.2,0.000,777.9,01.14,0.508
2014-02-12 04:10:00,4385E-2,5C000490,-0724,1375,5860,025.3,045.2,0.000,777.8,01.14,0.508
2014-02-12 04:11:00,4377E-2,5C000490,-0724,1375,5836,025.4,045.2,0.000,777.8,01.14,0.508
2014-02-12 04:12:00,4369E-2,5C000490,-0724,1375,5822,025.4,045.2,0.000,777.8,01.14,0.508
2014-02-12 04:13:00,4365E-2,5C000490,-0724,1375,5823,025.4,045.2,0.000,777.8,01.14,0.508
2014-02-12 04:14:00,4410E-2,5C000490,-0724,1375,5775,025.4,045.2,0.000,777.8,01.14,0.508
2014-02-12 04:15:00,4373E-2,5C000490,-0724,1375,5765,025.4,045.2,0.000,777.8,01.14,0.508
2014-02-12 04:16:00,4365E-2,5C000490,-0724,1375,5850,025.4,045.2,0.000,777.7,01.14,0.508
2014-02-12 04:17:00,4355E-2,5C000490,-0724,1375,5691,025.4,045.2,0.000,777.8,01.14,0.508
2014-02-12 04:18:00,4388E-2,5C000490,-0724,1375,5773,025.4,045.2,0.000,777.8,01.14,0.508
2014-02-12 04:19:00,4436E-2,5C000490,-0724,1376,5709,025.4,045.2,0.000,777.8,01.14,0.508
2014-02-12 04:20:00,4358E-2,5C000490,-0724,1375,5753,025.4,045.2,0.000,777.7,01.14,0.508
2014-02-12 04:21:00,4362E-2,5C000490,-0724,1375,5672,025.4,045.2,0.000,777.8,01.14,0.508
2014-02-12 04:22:00,4336E-2,5C000490,-0724,1376,5682,025.4,045.2,0.000,777.8,01.14,0.508
2014-02-12 04:23:00,4364E-2,5C000490,-0724,1375,5756,025.4,045.2,0.000,777.8,01.14,0.508